Location: Newark
(47.4333°N, 19.2500°E)
Time: 23:19:48
(UTC+00:00)

FO-99 - Visible Passes

Search period start: 05 May 2021 00:00
Search period end: 15 May 2021 00:00
Orbit: 472 x 505 km, 97.2° (Epoch: 05 May)

Date Brightness Start Highest point End Pass type
(mag) Time Alt. Az. Time Alt. Az. Time Alt. Az.
05 May ? 19:53:31 10° WSW 19:55:03 12° W 19:56:33 10° WNW visible
06 May ? 19:28:59 10° SW 19:31:51 21° W 19:34:42 10° NW visible
07 May ? 19:05:17 10° SSW 19:08:43 38° W 19:12:08 10° NNW visible
08 May ? 18:42:01 10° S 18:45:40 74° WSW 18:49:17 10° NNW visible
09 May ? 19:55:20 10° WSW 19:56:35 11° W 19:57:49 10° WNW visible
10 May ? 19:30:36 10° SW 19:33:21 20° W 19:36:07 10° NW visible
11 May ? 19:06:50 10° SSW 19:10:13 36° W 19:13:35 10° NNW visible
12 May ? 18:43:31 10° S 18:47:08 70° WSW 18:50:44 10° NNW visible
13 May ? 19:57:09 10° WSW 19:58:03 11° W 19:58:56 10° WNW visible
14 May ? 19:32:10 10° SW 19:34:48 19° W 19:37:27 10° NW visible
